Flag for U.S.A. Weather past 2 weeks in St. Louis, Missouri, U.S.A.

Now
36 °F

Passing clouds.


Feels Like: 29 °F
Forecast: 34 / 50 °F
Wind: 9 mph from South

Location: Lambert-St. Louis International Airport

Current Time: Dec 25, 2014 at 9:03:00 AM

Latest Report: Dec 25, 2014 at 7:51 AM


Visibility: 10 mi

Pressure: 30.03 "Hg

Humidity: 75%

Dew point: 29 °F

Location of St. LouisLocation

Historic Weather in St. Louis — Graph

°F

St. Louis temperature yesterday

Maximum temperature yesterday: 43 °F (at 12:51 AM)
Minimum temperature yesterday: 38 °F (at 9:51 PM)
Average temperature yesterday: 40 °F

Past Weeks' High & Low Weather Summary

 TemperatureHumidityPressure
High63 °F (Dec 14, 2:51 PM)94% (Dec 14, 4:58 AM)30.42 "Hg (Dec 14, 4:58 AM)
Low30 °F (Dec 18, 3:51 AM)56% (Dec 12, 1:51 PM)29.53 "Hg (Dec 22, 7:51 PM)
Average41 °F74%30.10 "Hg
* Reported Dec 10 7:51 AM — Dec 25 7:51 AM, St. Louis, Weather by CustomWeather, © 2014

Note: Actual official high and low records may vary slightly from our data, if they occured in-between our weather recording intervals... More about our weather records

Advertising

St. Louis weather history for previous 24 hours

 ConditionsComfort  
Time TempWeatherWind HumidityBarometerVisibility
7:51 AM
Dec 25
36 °FPassing clouds.9 mph75%30.03 "Hg10 mi
6:51 AM36 °FPassing clouds.6 mph75%30.01 "Hg10 mi
5:51 AM36 °FPassing clouds.5 mph75%29.99 "Hg10 mi
4:51 AM38 °FPassing clouds.7 mph70%29.96 "Hg10 mi
3:51 AM39 °FOvercast.9 mph73%29.96 "Hg10 mi
2:51 AM39 °FOvercast.12 mph70%29.95 "Hg10 mi
1:51 AM39 °FOvercast.10 mph70%29.93 "Hg10 mi
12:51 AM38 °FMostly cloudy.7 mph86%29.90 "Hg10 mi
12:02 AM37 °FLow clouds.5 mph87%29.87 "Hg10 mi
11:51 PM
Dec 24
38 °FMostly cloudy.5 mph86%29.89 "Hg10 mi
10:51 PM38 °FOvercast.7 mph83%29.88 "Hg10 mi
9:51 PM38 °FOvercast.9 mph83%29.87 "Hg10 mi
8:51 PM39 °FMostly cloudy.12 mph79%29.84 "Hg10 mi
7:51 PM39 °FMostly cloudy.10 mph79%29.83 "Hg10 mi
6:51 PM39 °FMostly cloudy.13 mph79%29.81 "Hg10 mi
5:51 PM39 °FOvercast.15 mph79%29.78 "Hg10 mi
4:51 PM39 °FMostly cloudy.16 mph79%29.75 "Hg10 mi
3:51 PM39 °FLight rain. More clouds than sun.15 mph82%29.72 "Hg10 mi
2:51 PM39 °FLight rain. Mostly cloudy.14 mph82%29.70 "Hg5 mi
2:03 PM39 °FLight rain. Mostly cloudy.12 mph81%29.67 "Hg4 mi
1:51 PM39 °FLight rain. Overcast.14 mph82%29.68 "Hg7 mi
1:00 PM39 °FLight rain. Cloudy.13 mph81%29.66 "Hg7 mi
11:51 AM40 °FLight rain. Mostly cloudy.10 mph83%29.69 "Hg4 mi
10:51 AM41 °FOvercast.10 mph80%29.72 "Hg8 mi
9:51 AM40 °FLow clouds.7 mph83%29.73 "Hg8 mi
Weather by CustomWeather, © 2014

See weather overviewHow to use our weather pages